Time,TemperatureF,DewpointF,PressureIn,WindDirection,WindDirectionDegrees,WindSpeedMPH,WindSpeedGustMPH,Humidity,HourlyPrecipIn,Conditions,Clouds,dailyrainin,SoftwareType,DateUTC
2013-05-22 00:01:00,31.5,32.0,25.43,NNW,337,4.9,7.7,99,0.00,,,0.00,Rainwise IP-100,2013-05-22 07:01:00,
2013-05-22 00:06:00,31.5,32.0,25.43,North,360,2.1,6.5,99,0.00,,,0.00,Rainwise IP-100,2013-05-22 07:06:00,
2013-05-22 00:11:00,31.5,32.0,25.43,North,360,2.8,6.1,99,0.00,,,0.00,Rainwise IP-100,2013-05-22 07:11:00,
2013-05-22 00:16:00,31.4,31.0,25.43,North,360,5.4,7.0,99,0.00,,,0.00,Rainwise IP-100,2013-05-22 07:16:00,
2013-05-22 00:21:00,31.4,31.0,25.43,North,360,3.0,5.8,99,0.00,,,0.00,Rainwise IP-100,2013-05-22 07:21:00,
2013-05-22 00:26:00,31.4,31.0,25.43,North,360,0.0,6.3,99,0.00,,,0.00,Rainwise IP-100,2013-05-22 07:26:00,
2013-05-22 00:31:00,31.3,31.0,25.43,North,360,2.3,6.8,99,0.00,,,0.00,Rainwise IP-100,2013-05-22 07:31:00,
2013-05-22 00:36:00,31.3,31.0,25.42,North,360,1.9,7.7,99,0.00,,,0.00,Rainwise IP-100,2013-05-22 07:36:00,
2013-05-22 00:41:00,31.3,31.0,25.42,North,360,3.3,6.3,99,0.00,,,0.00,Rainwise IP-100,2013-05-22 07:41:00,
2013-05-22 00:46:00,31.3,31.0,25.42,North,360,4.0,7.5,99,0.00,,,0.00,Rainwise IP-100,2013-05-22 07:46:00,
2013-05-22 00:51:00,31.3,31.0,25.42,North,360,5.4,9.3,99,0.00,,,0.00,Rainwise IP-100,2013-05-22 07:51:00,
2013-05-22 00:56:00,31.2,31.0,25.42,North,360,2.6,8.2,99,0.00,,,0.00,Rainwise IP-100,2013-05-22 07:56:00,
2013-05-22 01:01:00,31.1,31.0,25.42,North,360,2.6,8.2,99,0.00,,,0.00,Rainwise IP-100,2013-05-22 08:01:00,
2013-05-22 01:06:00,31.1,31.0,25.42,North,360,0.0,8.4,100,0.00,,,0.00,Rainwise IP-100,2013-05-22 08:06:00,
2013-05-22 01:11:00,31.1,31.0,25.43,North,360,3.5,6.1,100,0.00,,,0.00,Rainwise IP-100,2013-05-22 08:11:00,
2013-05-22 01:16:00,31.1,31.0,25.42,North,360,4.7,5.8,100,0.00,,,0.00,Rainwise IP-100,2013-05-22 08:16:00,
2013-05-22 01:21:00,31.1,31.0,25.43,North,360,2.6,5.6,100,0.00,,,0.00,Rainwise IP-100,2013-05-22 08:21:00,
2013-05-22 01:26:00,31.0,31.0,25.43,North,360,4.2,5.8,100,0.00,,,0.00,Rainwise IP-100,2013-05-22 08:26:00,
2013-05-22 01:31:00,31.0,31.0,25.43,North,360,3.7,6.5,100,0.00,,,0.00,Rainwise IP-100,2013-05-22 08:31:00,
2013-05-22 01:36:00,30.9,31.0,25.43,North,360,3.7,5.1,100,0.00,,,0.00,Rainwise IP-100,2013-05-22 08:36:00,
2013-05-22 01:41:00,30.9,31.0,25.42,North,360,2.1,7.5,100,0.00,,,0.00,Rainwise IP-100,2013-05-22 08:41:00,
2013-05-22 01:46:00,30.8,31.0,25.43,North,360,3.7,6.1,100,0.00,,,0.00,Rainwise IP-100,2013-05-22 08:46:00,
2013-05-22 01:51:00,30.8,31.0,25.42,North,360,5.4,7.7,100,0.00,,,0.00,Rainwise IP-100,2013-05-22 08:51:00,
2013-05-22 01:56:00,30.8,31.0,25.43,North,360,5.8,7.5,100,0.00,,,0.00,Rainwise IP-100,2013-05-22 08:56:00,
2013-05-22 02:01:00,30.7,31.0,25.42,North,360,0.0,7.2,100,0.00,,,0.00,Rainwise IP-100,2013-05-22 09:01:00,
2013-05-22 02:06:00,30.6,31.0,25.43,North,360,3.0,7.2,100,0.00,,,0.00,Rainwise IP-100,2013-05-22 09:06:00,
2013-05-22 02:11:00,30.6,31.0,25.43,North,360,5.6,6.1,100,0.00,,,0.00,Rainwise IP-100,2013-05-22 09:11:00,
2013-05-22 02:16:00,30.6,31.0,25.43,North,360,3.0,6.5,100,0.00,,,0.00,Rainwise IP-100,2013-05-22 09:16:00,
2013-05-22 02:21:00,30.6,31.0,25.43,North,360,2.1,4.4,100,0.00,,,0.00,Rainwise IP-100,2013-05-22 09:21:00,
2013-05-22 02:26:00,30.6,31.0,25.43,North,360,3.7,4.4,100,0.00,,,0.00,Rainwise IP-100,2013-05-22 09:26:00,
2013-05-22 02:31:00,30.5,31.0,25.43,North,360,3.7,5.1,100,0.00,,,0.00,Rainwise IP-100,2013-05-22 09:31:00,
2013-05-22 02:36:00,30.4,31.0,25.43,North,360,5.8,5.8,100,0.00,,,0.00,Rainwise IP-100,2013-05-22 09:36:00,
2013-05-22 02:41:00,30.4,31.0,25.42,North,360,2.3,6.8,100,0.00,,,0.00,Rainwise IP-100,2013-05-22 09:41:00,
2013-05-22 02:46:00,30.4,31.0,25.43,North,360,2.8,6.8,100,0.00,,,0.00,Rainwise IP-100,2013-05-22 09:46:00,
2013-05-22 02:51:00,30.3,31.0,25.43,North,360,3.3,7.0,100,0.00,,,0.00,Rainwise IP-100,2013-05-22 09:51:00,
2013-05-22 02:56:00,30.2,31.0,25.42,North,360,1.6,8.6,100,0.00,,,0.00,Rainwise IP-100,2013-05-22 09:56:00,
2013-05-22 03:01:00,30.2,31.0,25.43,North,360,4.0,7.2,100,0.00,,,0.00,Rainwise IP-100,2013-05-22 10:01:00,
2013-05-22 03:06:00,30.1,31.0,25.42,North,360,3.3,6.1,100,0.00,,,0.00,Rainwise IP-100,2013-05-22 10:06:00,
2013-05-22 03:11:00,30.1,31.0,25.42,North,360,2.8,6.8,100,0.00,,,0.00,Rainwise IP-100,2013-05-22 10:11:00,
2013-05-22 03:16:00,30.1,31.0,25.42,North,360,4.0,7.0,100,0.00,,,0.00,Rainwise IP-100,2013-05-22 10:16:00,
2013-05-22 03:21:00,30.1,31.0,25.42,North,360,2.8,8.9,100,0.00,,,0.00,Rainwise IP-100,2013-05-22 10:21:00,
2013-05-22 03:26:00,30.0,31.0,25.42,North,360,4.2,6.1,100,0.00,,,0.00,Rainwise IP-100,2013-05-22 10:26:00,
2013-05-22 03:31:00,29.9,31.0,25.42,North,360,1.6,5.8,100,0.00,,,0.00,Rainwise IP-100,2013-05-22 10:31:00,
2013-05-22 03:36:00,29.9,31.0,25.42,North,360,1.4,8.2,100,0.00,,,0.00,Rainwise IP-100,2013-05-22 10:36:00,
2013-05-22 03:41:00,29.8,31.0,25.42,North,360,4.7,7.7,100,0.00,,,0.00,Rainwise IP-100,2013-05-22 10:41:00,
2013-05-22 03:46:00,29.7,31.0,25.42,North,360,2.8,7.2,100,0.00,,,0.00,Rainwise IP-100,2013-05-22 10:46:00,
2013-05-22 03:51:00,29.7,31.0,25.42,North,360,4.0,5.6,100,0.00,,,0.00,Rainwise IP-100,2013-05-22 10:51:00,
2013-05-22 03:56:00,29.6,31.0,25.42,North,360,1.9,6.8,100,0.00,,,0.00,Rainwise IP-100,2013-05-22 10:56:00,
2013-05-22 04:01:00,29.6,31.0,25.42,North,360,1.9,5.4,100,0.00,,,0.00,Rainwise IP-100,2013-05-22 11:01:00,
2013-05-22 04:06:00,29.5,31.0,25.42,North,360,5.1,5.6,100,0.00,,,0.00,Rainwise IP-100,2013-05-22 11:06:00,
2013-05-22 04:11:00,29.5,31.0,25.42,North,360,2.1,7.7,100,0.00,,,0.00,Rainwise IP-100,2013-05-22 11:11:00,
2013-05-22 04:16:00,29.5,31.0,25.42,North,360,2.3,5.1,100,0.00,,,0.00,Rainwise IP-100,2013-05-22 11:16:00,
2013-05-22 04:21:00,29.4,29.0,25.41,North,360,2.3,4.4,100,0.00,,,0.00,Rainwise IP-100,2013-05-22 11:21:00,
2013-05-22 04:26:00,29.3,29.0,25.41,North,360,2.6,4.4,100,0.00,,,0.00,Rainwise IP-100,2013-05-22 11:26:00,
2013-05-22 04:30:00,29.3,29.0,25.40,North,360,1.9,5.8,100,0.00,,,0.00,Rainwise IP-100,2013-05-22 11:30:00,
2013-05-22 04:32:00,29.3,29.0,25.40,North,360,4.2,5.8,100,0.00,,,0.00,Rainwise IP-100,2013-05-22 11:32:00,
2013-05-22 04:37:00,29.3,29.0,25.40,North,360,3.5,7.0,100,0.00,,,0.00,Rainwise IP-100,2013-05-22 11:37:00,
2013-05-22 04:42:00,29.2,29.0,25.40,North,360,2.1,5.8,100,0.00,,,0.00,Rainwise IP-100,2013-05-22 11:42:00,
2013-05-22 04:47:00,29.2,29.0,25.41,North,360,3.7,5.6,100,0.00,,,0.00,Rainwise IP-100,2013-05-22 11:47:00,
2013-05-22 04:52:00,29.2,29.0,25.41,North,360,3.0,6.5,100,0.00,,,0.00,Rainwise IP-100,2013-05-22 11:52:00,
2013-05-22 04:57:00,29.2,29.0,25.41,North,360,1.2,6.5,100,0.00,,,0.00,Rainwise IP-100,2013-05-22 11:57:00,
2013-05-22 05:02:00,29.2,29.0,25.40,North,360,5.4,5.4,100,0.00,,,0.00,Rainwise IP-100,2013-05-22 12:02:00,
2013-05-22 05:07:00,29.1,29.0,25.41,North,360,0.0,5.4,100,0.00,,,0.00,Rainwise IP-100,2013-05-22 12:07:00,
2013-05-22 05:12:00,29.1,29.0,25.40,North,360,2.1,4.9,100,0.00,,,0.00,Rainwise IP-100,2013-05-22 12:12:00,
2013-05-22 05:17:00,29.1,29.0,25.40,North,360,3.3,5.8,100,0.00,,,0.00,Rainwise IP-100,2013-05-22 12:17:00,
2013-05-22 05:22:00,29.1,29.0,25.41,North,360,3.3,3.7,100,0.00,,,0.00,Rainwise IP-100,2013-05-22 12:22:00,
2013-05-22 05:27:00,29.0,29.0,25.40,North,360,0.0,4.9,100,0.00,,,0.00,Rainwise IP-100,2013-05-22 12:27:00,
2013-05-22 05:32:00,29.0,29.0,25.41,North,360,2.1,5.8,100,0.00,,,0.00,Rainwise IP-100,2013-05-22 12:32:00,
2013-05-22 05:37:00,29.0,29.0,25.40,North,360,2.1,3.7,100,0.00,,,0.00,Rainwise IP-100,2013-05-22 12:37:00,
2013-05-22 05:42:00,29.0,29.0,25.40,North,360,1.6,3.7,100,0.00,,,0.00,Rainwise IP-100,2013-05-22 12:42:00,
2013-05-22 05:47:00,29.0,29.0,25.41,North,360,1.9,4.0,100,0.00,,,0.00,Rainwise IP-100,2013-05-22 12:47:00,
2013-05-22 05:52:00,29.0,29.0,25.40,North,360,0.0,4.4,100,0.00,,,0.00,Rainwise IP-100,2013-05-22 12:52:00,
2013-05-22 05:57:00,29.0,29.0,25.40,North,360,0.0,0.0,100,0.00,,,0.00,Rainwise IP-100,2013-05-22 12:57:00,
2013-05-22 06:02:00,29.0,29.0,25.40,North,360,0.0,0.0,100,0.00,,,0.00,Rainwise IP-100,2013-05-22 13:02:00,
2013-05-22 06:07:00,29.0,29.0,25.40,North,360,0.0,0.0,100,0.00,,,0.00,Rainwise IP-100,2013-05-22 13:07:00,
2013-05-22 06:12:00,29.0,29.0,25.40,North,360,0.0,0.0,100,0.00,,,0.00,Rainwise IP-100,2013-05-22 13:12:00,
2013-05-22 06:17:00,29.0,29.0,25.40,North,360,0.0,0.0,100,0.00,,,0.00,Rainwise IP-100,2013-05-22 13:17:00,
2013-05-22 06:22:00,29.0,29.0,25.40,North,360,0.0,0.0,100,0.00,,,0.00,Rainwise IP-100,2013-05-22 13:22:00,
2013-05-22 06:27:00,29.0,29.0,25.40,North,360,0.0,0.0,100,0.00,,,0.00,Rainwise IP-100,2013-05-22 13:27:00,
2013-05-22 06:32:00,28.8,29.0,25.40,North,360,0.0,0.0,100,0.00,,,0.00,Rainwise IP-100,2013-05-22 13:32:00,
2013-05-22 06:37:00,28.7,29.0,25.40,North,360,0.0,0.0,100,0.00,,,0.00,Rainwise IP-100,2013-05-22 13:37:00,
2013-05-22 06:42:00,28.6,29.0,25.40,North,360,0.0,0.0,100,0.00,,,0.00,Rainwise IP-100,2013-05-22 13:42:00,
2013-05-22 06:47:00,28.6,29.0,25.40,North,360,0.0,0.0,100,0.00,,,0.00,Rainwise IP-100,2013-05-22 13:47:00,
2013-05-22 06:52:00,28.5,29.0,25.41,North,360,0.0,0.0,100,0.00,,,0.00,Rainwise IP-100,2013-05-22 13:52:00,
2013-05-22 06:57:00,28.5,29.0,25.41,North,360,0.0,0.0,100,0.00,,,0.00,Rainwise IP-100,2013-05-22 13:57:00,
2013-05-22 07:02:00,28.6,29.0,25.41,North,360,0.0,0.0,100,0.00,,,0.00,Rainwise IP-100,2013-05-22 14:02:00,
2013-05-22 07:07:00,28.6,29.0,25.41,North,360,0.0,0.0,100,0.00,,,0.00,Rainwise IP-100,2013-05-22 14:07:00,
2013-05-22 07:12:00,28.6,29.0,25.41,North,360,0.0,0.0,100,0.00,,,0.00,Rainwise IP-100,2013-05-22 14:12:00,
2013-05-22 07:17:00,28.6,29.0,25.41,North,360,0.0,0.0,100,0.00,,,0.00,Rainwise IP-100,2013-05-22 14:17:00,
2013-05-22 07:22:00,28.6,29.0,25.41,North,360,0.0,0.0,100,0.00,,,0.00,Rainwise IP-100,2013-05-22 14:22:00,
2013-05-22 07:27:00,28.6,29.0,25.41,North,360,0.0,0.0,100,0.00,,,0.00,Rainwise IP-100,2013-05-22 14:27:00,
2013-05-22 07:32:00,28.7,29.0,25.41,North,360,0.0,0.0,100,0.00,,,0.00,Rainwise IP-100,2013-05-22 14:32:00,
2013-05-22 07:37:00,28.7,29.0,25.41,North,360,0.0,0.0,100,0.00,,,0.00,Rainwise IP-100,2013-05-22 14:37:00,
2013-05-22 07:42:00,28.9,29.0,25.42,North,360,0.0,0.0,100,0.00,,,0.00,Rainwise IP-100,2013-05-22 14:42:00,
2013-05-22 07:47:00,29.0,29.0,25.42,North,360,0.0,0.0,100,0.00,,,0.00,Rainwise IP-100,2013-05-22 14:47:00,
2013-05-22 07:52:00,29.2,29.0,25.42,North,360,0.0,0.0,100,0.00,,,0.00,Rainwise IP-100,2013-05-22 14:52:00,
2013-05-22 07:57:00,29.3,29.0,25.42,North,360,0.0,0.0,99,0.00,,,0.00,Rainwise IP-100,2013-05-22 14:57:00,
2013-05-22 08:02:00,29.4,29.0,25.41,North,360,0.0,0.0,99,0.00,,,0.00,Rainwise IP-100,2013-05-22 15:02:00,
2013-05-22 08:07:00,29.6,31.0,25.42,North,360,0.0,0.0,99,0.00,,,0.00,Rainwise IP-100,2013-05-22 15:07:00,
2013-05-22 08:12:00,29.8,31.0,25.42,North,360,0.0,0.0,98,0.00,,,0.00,Rainwise IP-100,2013-05-22 15:12:00,
2013-05-22 08:17:00,30.1,31.0,25.42,North,360,0.0,0.0,98,0.00,,,0.00,Rainwise IP-100,2013-05-22 15:17:00,
2013-05-22 08:22:00,30.3,31.0,25.42,North,360,0.0,0.0,98,0.00,,,0.00,Rainwise IP-100,2013-05-22 15:22:00,
2013-05-22 08:27:00,30.5,29.0,25.42,North,360,0.0,0.0,97,0.00,,,0.00,Rainwise IP-100,2013-05-22 15:27:00,
2013-05-22 08:32:00,30.7,29.0,25.42,North,360,0.0,0.0,97,0.00,,,0.00,Rainwise IP-100,2013-05-22 15:32:00,
2013-05-22 08:37:00,30.9,29.0,25.42,NNW,337,0.0,0.0,97,0.00,,,0.00,Rainwise IP-100,2013-05-22 15:37:00,
2013-05-22 08:42:00,31.0,29.0,25.42,NNW,337,0.0,0.0,97,0.00,,,0.00,Rainwise IP-100,2013-05-22 15:42:00,
2013-05-22 08:47:00,31.1,29.0,25.42,NW,315,1.9,2.3,96,0.00,,,0.00,Rainwise IP-100,2013-05-22 15:47:00,
2013-05-22 08:52:00,31.2,29.0,25.42,NNW,337,0.0,2.8,96,0.00,,,0.00,Rainwise IP-100,2013-05-22 15:52:00,
2013-05-22 08:57:00,31.3,29.0,25.42,NNW,337,0.0,0.0,96,0.00,,,0.00,Rainwise IP-100,2013-05-22 15:57:00,
2013-05-22 09:02:00,31.3,29.0,25.42,NNW,337,0.0,0.0,96,0.00,,,0.00,Rainwise IP-100,2013-05-22 16:02:00,
2013-05-22 09:07:00,31.4,29.0,25.42,NNW,337,0.0,0.0,96,0.00,,,0.00,Rainwise IP-100,2013-05-22 16:07:00,
2013-05-22 09:12:00,31.4,29.0,25.42,North,360,1.6,5.1,96,0.00,,,0.00,Rainwise IP-100,2013-05-22 16:12:00,
2013-05-22 09:17:00,31.3,29.0,25.42,NNW,337,2.3,5.6,96,0.00,,,0.00,Rainwise IP-100,2013-05-22 16:17:00,
2013-05-22 09:22:00,31.2,29.0,25.42,NNW,337,1.6,3.3,96,0.00,,,0.00,Rainwise IP-100,2013-05-22 16:22:00,
2013-05-22 09:27:00,31.1,29.0,25.42,NNW,337,1.4,4.7,96,0.00,,,0.00,Rainwise IP-100,2013-05-22 16:27:00,
2013-05-22 09:32:00,31.1,29.0,25.42,NNW,337,0.0,3.0,96,0.00,,,0.00,Rainwise IP-100,2013-05-22 16:32:00,
2013-05-22 09:37:00,31.2,29.0,25.43,NNW,337,0.0,2.8,96,0.00,,,0.00,Rainwise IP-100,2013-05-22 16:37:00,
2013-05-22 09:42:00,31.3,29.0,25.43,NNW,337,1.6,3.0,96,0.00,,,0.00,Rainwise IP-100,2013-05-22 16:42:00,
2013-05-22 09:47:00,31.4,29.0,25.43,NNW,337,1.6,3.3,95,0.00,,,0.00,Rainwise IP-100,2013-05-22 16:47:00,
2013-05-22 09:52:00,31.6,31.0,25.43,NNW,337,1.6,2.3,95,0.00,,,0.00,Rainwise IP-100,2013-05-22 16:52:00,
2013-05-22 09:57:00,31.8,31.0,25.43,NNW,337,0.0,2.1,95,0.00,,,0.00,Rainwise IP-100,2013-05-22 16:57:00,
2013-05-22 10:02:00,31.9,31.0,25.43,NNW,337,0.0,1.4,96,0.00,,,0.00,Rainwise IP-100,2013-05-22 17:02:00,
2013-05-22 10:07:00,32.0,31.0,25.43,NNW,337,1.6,1.6,96,0.00,,,0.00,Rainwise IP-100,2013-05-22 17:07:00,
2013-05-22 10:12:00,32.0,31.0,25.43,NNW,337,1.6,2.8,95,0.00,,,0.00,Rainwise IP-100,2013-05-22 17:12:00,
2013-05-22 10:17:00,32.2,31.0,25.43,NNW,337,0.0,2.6,95,0.00,,,0.00,Rainwise IP-100,2013-05-22 17:17:00,
2013-05-22 10:22:00,32.4,31.0,25.44,NNW,337,1.4,1.4,95,0.00,,,0.00,Rainwise IP-100,2013-05-22 17:22:00,
2013-05-22 10:27:00,32.7,32.0,25.43,NNW,337,2.6,3.3,95,0.00,,,0.00,Rainwise IP-100,2013-05-22 17:27:00,
2013-05-22 10:32:00,32.9,32.0,25.44,NNW,337,3.5,3.5,95,0.00,,,0.00,Rainwise IP-100,2013-05-22 17:32:00,
2013-05-22 10:37:00,33.0,32.0,25.44,NNW,337,2.6,4.4,94,0.00,,,0.00,Rainwise IP-100,2013-05-22 17:37:00,
2013-05-22 10:42:00,33.1,32.0,25.44,NNW,337,5.4,6.1,94,0.00,,,0.00,Rainwise IP-100,2013-05-22 17:42:00,
2013-05-22 10:47:00,33.2,32.0,25.44,NNW,337,3.7,6.5,94,0.00,,,0.00,Rainwise IP-100,2013-05-22 17:47:00,
2013-05-22 10:52:00,33.2,32.0,25.44,NNW,337,2.8,5.8,94,0.00,,,0.00,Rainwise IP-100,2013-05-22 17:52:00,
2013-05-22 10:57:00,33.4,32.0,25.44,NNW,337,4.9,7.9,94,0.00,,,0.00,Rainwise IP-100,2013-05-22 17:57:00,
2013-05-22 11:02:00,33.4,32.0,25.44,NNW,337,3.7,7.7,94,0.00,,,0.00,Rainwise IP-100,2013-05-22 18:02:00,
2013-05-22 11:07:00,33.5,33.0,25.44,NNW,337,4.0,6.5,94,0.00,,,0.00,Rainwise IP-100,2013-05-22 18:07:00,
2013-05-22 11:12:00,33.5,33.0,25.44,NNW,337,5.4,7.2,94,0.00,,,0.00,Rainwise IP-100,2013-05-22 18:12:00,
2013-05-22 11:17:00,33.5,33.0,25.44,NNW,337,4.0,7.0,94,0.00,,,0.00,Rainwise IP-100,2013-05-22 18:17:00,
2013-05-22 11:22:00,33.6,33.0,25.44,NNW,337,5.4,6.5,94,0.00,,,0.00,Rainwise IP-100,2013-05-22 18:22:00,
2013-05-22 11:27:00,33.7,33.0,25.44,NNW,337,6.3,7.5,95,0.00,,,0.00,Rainwise IP-100,2013-05-22 18:27:00,
2013-05-22 11:32:00,33.7,33.0,25.44,NNW,337,4.2,6.8,95,0.00,,,0.00,Rainwise IP-100,2013-05-22 18:32:00,
2013-05-22 11:37:00,33.8,33.0,25.44,NNW,337,4.9,6.8,95,0.00,,,0.00,Rainwise IP-100,2013-05-22 18:37:00,
2013-05-22 11:42:00,33.8,33.0,25.44,NNW,337,2.3,7.9,94,0.00,,,0.00,Rainwise IP-100,2013-05-22 18:42:00,
2013-05-22 11:47:00,33.9,33.0,25.44,North,360,4.4,5.1,94,0.00,,,0.00,Rainwise IP-100,2013-05-22 18:47:00,
2013-05-22 11:52:00,34.1,33.0,25.44,North,360,3.0,8.2,94,0.00,,,0.00,Rainwise IP-100,2013-05-22 18:52:00,
2013-05-22 11:57:00,34.1,33.0,25.44,NNW,337,2.8,6.5,94,0.00,,,0.00,Rainwise IP-100,2013-05-22 18:57:00,
2013-05-22 12:02:00,34.0,33.0,25.44,ESE,112,0.0,7.0,94,0.00,,,0.00,Rainwise IP-100,2013-05-22 19:02:00,
2013-05-22 12:07:00,34.2,33.0,25.44,North,360,4.9,5.6,94,0.00,,,0.00,Rainwise IP-100,2013-05-22 19:07:00,
2013-05-22 12:12:00,34.5,33.0,25.45,NNE,22,3.7,7.0,93,0.00,,,0.00,Rainwise IP-100,2013-05-22 19:12:00,
2013-05-22 12:17:00,34.6,33.0,25.44,NNE,22,4.0,6.8,93,0.00,,,0.00,Rainwise IP-100,2013-05-22 19:17:00,
2013-05-22 12:22:00,34.8,32.0,25.45,NNW,337,5.8,7.7,92,0.00,,,0.00,Rainwise IP-100,2013-05-22 19:22:00,
2013-05-22 12:27:00,34.9,32.0,25.45,NNW,337,5.1,6.8,92,0.00,,,0.00,Rainwise IP-100,2013-05-22 19:27:00,
2013-05-22 12:32:00,34.9,32.0,25.45,NNW,337,3.0,7.5,92,0.00,,,0.00,Rainwise IP-100,2013-05-22 19:32:00,
2013-05-22 12:37:00,34.9,32.0,25.45,NNW,337,3.0,5.8,92,0.00,,,0.00,Rainwise IP-100,2013-05-22 19:37:00,
2013-05-22 12:42:00,34.9,32.0,25.45,NNE,22,3.5,6.1,92,0.00,,,0.00,Rainwise IP-100,2013-05-22 19:42:00,
2013-05-22 12:47:00,34.9,32.0,25.45,NNE,22,2.8,6.8,92,0.00,,,0.00,Rainwise IP-100,2013-05-22 19:47:00,
2013-05-22 12:52:00,35.0,32.0,25.45,NNE,22,3.3,6.1,92,0.00,,,0.00,Rainwise IP-100,2013-05-22 19:52:00,
2013-05-22 12:57:00,35.2,32.0,25.46,NNE,22,4.7,6.3,92,0.00,,,0.00,Rainwise IP-100,2013-05-22 19:57:00,
2013-05-22 13:02:00,35.2,32.0,25.45,North,360,3.7,7.0,91,0.00,,,0.00,Rainwise IP-100,2013-05-22 20:02:00,
2013-05-22 13:07:00,35.2,32.0,25.45,NNW,337,4.2,9.3,91,0.00,,,0.00,Rainwise IP-100,2013-05-22 20:07:00,
2013-05-22 13:12:00,35.1,32.0,25.46,NNW,337,4.0,9.1,91,0.00,,,0.00,Rainwise IP-100,2013-05-22 20:12:00,
2013-05-22 13:17:00,35.1,32.0,25.46,North,360,2.1,7.7,91,0.00,,,0.00,Rainwise IP-100,2013-05-22 20:17:00,
2013-05-22 13:22:00,34.9,32.0,25.46,NNW,337,5.1,8.6,92,0.00,,,0.00,Rainwise IP-100,2013-05-22 20:22:00,
2013-05-22 13:27:00,34.7,32.0,25.45,North,360,3.0,7.2,92,0.12,,,0.02,Rainwise IP-100,2013-05-22 20:27:00,
2013-05-22 13:32:00,34.7,32.0,25.45,NNE,22,6.1,8.4,92,0.24,,,0.04,Rainwise IP-100,2013-05-22 20:32:00,
2013-05-22 13:37:00,34.7,32.0,25.46,NNW,337,3.3,6.5,92,0.18,,,0.05,Rainwise IP-100,2013-05-22 20:37:00,
2013-05-22 13:42:00,34.8,32.0,25.45,NNW,337,4.4,6.5,92,0.18,,,0.07,Rainwise IP-100,2013-05-22 20:42:00,
2013-05-22 13:47:00,35.0,32.0,25.46,NNE,22,3.0,8.6,92,0.18,,,0.08,Rainwise IP-100,2013-05-22 20:47:00,
2013-05-22 13:52:00,35.5,33.0,25.46,NNW,337,4.4,7.0,92,0.18,,,0.10,Rainwise IP-100,2013-05-22 20:52:00,
2013-05-22 13:57:00,35.9,33.0,25.46,NNW,337,5.8,7.9,91,0.18,,,0.12,Rainwise IP-100,2013-05-22 20:57:00,
2013-05-22 14:02:00,36.1,33.0,25.46,North,360,3.0,9.1,91,0.18,,,0.13,Rainwise IP-100,2013-05-22 21:02:00,
2013-05-22 14:07:00,36.2,33.0,25.46,NNE,22,4.4,8.9,90,0.18,,,0.15,Rainwise IP-100,2013-05-22 21:07:00,
2013-05-22 14:12:00,36.1,33.0,25.46,North,360,4.9,8.4,90,0.18,,,0.16,Rainwise IP-100,2013-05-22 21:12:00,
2013-05-22 14:17:00,35.8,33.0,25.46,NNE,22,3.7,7.0,91,0.18,,,0.17,Rainwise IP-100,2013-05-22 21:17:00,
2013-05-22 14:22:00,35.7,33.0,25.47,North,360,4.0,6.8,91,0.12,,,0.18,Rainwise IP-100,2013-05-22 21:22:00,
2013-05-22 14:27:00,35.7,33.0,25.46,NNE,22,1.9,5.4,92,0.12,,,0.19,Rainwise IP-100,2013-05-22 21:27:00,
2013-05-22 14:32:00,35.7,33.0,25.47,NNW,337,3.7,6.8,92,0.12,,,0.20,Rainwise IP-100,2013-05-22 21:32:00,
2013-05-22 14:37:00,35.7,33.0,25.47,North,360,0.0,7.9,92,0.12,,,0.21,Rainwise IP-100,2013-05-22 21:37:00,
2013-05-22 14:42:00,35.5,33.0,25.46,SSE,157,1.4,6.1,92,0.06,,,0.21,Rainwise IP-100,2013-05-22 21:42:00,
2013-05-22 14:47:00,35.4,32.0,25.47,NNW,337,5.1,6.1,92,0.00,,,0.21,Rainwise IP-100,2013-05-22 21:47:00,
2013-05-22 14:52:00,35.5,33.0,25.47,NNW,337,2.3,5.6,92,0.00,,,0.21,Rainwise IP-100,2013-05-22 21:52:00,
2013-05-22 14:57:00,35.6,35.0,25.47,NNW,337,3.7,6.3,93,0.00,,,0.21,Rainwise IP-100,2013-05-22 21:57:00,
2013-05-22 15:02:00,35.5,35.0,25.47,NNE,22,2.1,6.8,93,0.00,,,0.21,Rainwise IP-100,2013-05-22 22:02:00,
2013-05-22 15:07:00,35.5,35.0,25.48,NNW,337,3.5,6.3,93,0.00,,,0.21,Rainwise IP-100,2013-05-22 22:07:00,
2013-05-22 15:12:00,35.2,33.0,25.48,NNE,22,3.5,7.0,93,0.00,,,0.21,Rainwise IP-100,2013-05-22 22:12:00,
2013-05-22 15:17:00,34.8,33.0,25.47,NNE,22,2.1,6.1,93,0.12,,,0.23,Rainwise IP-100,2013-05-22 22:17:00,
2013-05-22 15:22:00,34.3,33.0,25.48,ENE,67,0.0,5.4,93,0.18,,,0.24,Rainwise IP-100,2013-05-22 22:22:00,
2013-05-22 15:27:00,33.9,33.0,25.48,NNE,22,0.0,3.0,94,0.06,,,0.24,Rainwise IP-100,2013-05-22 22:27:00,
2013-05-22 15:32:00,33.7,33.0,25.48,NNE,22,0.0,2.1,95,0.06,,,0.25,Rainwise IP-100,2013-05-22 22:32:00,
2013-05-22 15:37:00,33.6,33.0,25.48,ENE,67,0.0,1.6,95,0.06,,,0.25,Rainwise IP-100,2013-05-22 22:37:00,
2013-05-22 15:42:00,33.7,33.0,25.48,NNW,337,2.1,2.1,96,0.00,,,0.25,Rainwise IP-100,2013-05-22 22:42:00,
2013-05-22 15:47:00,33.6,33.0,25.48,NNW,337,0.0,3.5,96,0.00,,,0.25,Rainwise IP-100,2013-05-22 22:47:00,
2013-05-22 15:52:00,33.4,32.0,25.48,NNW,337,0.0,1.9,96,0.06,,,0.26,Rainwise IP-100,2013-05-22 22:52:00,
2013-05-22 15:58:00,33.1,32.0,25.48,NNW,337,0.0,0.0,97,0.06,,,0.26,Rainwise IP-100,2013-05-22 22:58:00,
2013-05-22 16:03:00,33.0,32.0,25.48,NNW,337,0.0,0.0,97,0.00,,,0.26,Rainwise IP-100,2013-05-22 23:03:00,
2013-05-22 16:08:00,32.8,32.0,25.48,NNW,337,0.0,0.0,97,0.06,,,0.27,Rainwise IP-100,2013-05-22 23:08:00,
2013-05-22 16:13:00,32.6,32.0,25.48,NNW,337,0.0,0.0,97,0.06,,,0.27,Rainwise IP-100,2013-05-22 23:13:00,
2013-05-22 16:18:00,32.5,33.0,25.48,NNW,337,0.0,0.0,98,0.00,,,0.27,Rainwise IP-100,2013-05-22 23:18:00,
2013-05-22 16:23:00,32.6,33.0,25.48,NNW,337,0.0,0.0,98,0.00,,,0.27,Rainwise IP-100,2013-05-22 23:23:00,
2013-05-22 16:28:00,32.7,33.0,25.48,NNW,337,0.0,0.0,99,0.06,,,0.28,Rainwise IP-100,2013-05-22 23:28:00,
2013-05-22 16:33:00,32.8,33.0,25.48,NNW,337,0.0,0.0,99,0.06,,,0.28,Rainwise IP-100,2013-05-22 23:33:00,
2013-05-22 16:38:00,32.9,33.0,25.49,NNW,337,0.0,0.0,99,0.00,,,0.28,Rainwise IP-100,2013-05-22 23:38:00,
2013-05-22 16:43:00,33.0,33.0,25.48,NNW,337,0.0,0.0,99,0.06,,,0.29,Rainwise IP-100,2013-05-22 23:43:00,
2013-05-22 16:48:00,33.1,33.0,25.48,NNW,337,0.0,0.0,99,0.06,,,0.29,Rainwise IP-100,2013-05-22 23:48:00,
2013-05-22 16:53:00,33.0,33.0,25.49,NNW,337,0.0,0.0,98,0.00,,,0.29,Rainwise IP-100,2013-05-22 23:53:00,
2013-05-22 16:58:00,32.9,33.0,25.49,NNW,337,0.0,0.0,98,0.00,,,0.29,Rainwise IP-100,2013-05-22 23:58:00,
2013-05-22 17:03:00,32.8,33.0,25.48,NNW,337,2.8,3.0,98,0.06,,,0.30,Rainwise IP-100,2013-05-23 00:03:00,
2013-05-22 17:08:00,32.7,33.0,25.49,NNW,337,2.6,3.7,98,0.06,,,0.30,Rainwise IP-100,2013-05-23 00:08:00,
2013-05-22 17:13:00,32.5,33.0,25.49,NNW,337,4.0,4.0,98,0.00,,,0.30,Rainwise IP-100,2013-05-23 00:13:00,
2013-05-22 17:18:00,32.4,32.0,25.49,NNW,337,0.0,4.7,98,0.00,,,0.30,Rainwise IP-100,2013-05-23 00:18:00,
2013-05-22 17:23:00,32.2,32.0,25.49,NNW,337,0.0,3.7,98,0.06,,,0.31,Rainwise IP-100,2013-05-23 00:23:00,
2013-05-22 17:28:00,32.2,32.0,25.49,NNW,337,1.9,3.3,98,0.06,,,0.31,Rainwise IP-100,2013-05-23 00:28:00,
2013-05-22 17:33:00,32.2,32.0,25.49,NNW,337,1.4,3.5,99,0.00,,,0.31,Rainwise IP-100,2013-05-23 00:33:00,
2013-05-22 17:38:00,32.3,32.0,25.49,NNW,337,1.4,2.8,99,0.00,,,0.31,Rainwise IP-100,2013-05-23 00:38:00,
2013-05-22 17:43:00,32.3,32.0,25.49,NNW,337,0.0,3.0,99,0.00,,,0.31,Rainwise IP-100,2013-05-23 00:43:00,
2013-05-22 17:48:00,32.3,32.0,25.49,NNW,337,0.0,1.6,99,0.00,,,0.32,Rainwise IP-100,2013-05-23 00:48:00,
2013-05-22 17:53:00,32.3,32.0,25.49,NNW,337,0.0,2.1,99,0.06,,,0.32,Rainwise IP-100,2013-05-23 00:53:00,
2013-05-22 17:57:00,32.3,32.0,25.49,NNW,337,0.0,2.1,99,0.06,,,0.32,Rainwise IP-100,2013-05-23 00:57:00,
2013-05-22 18:02:00,32.3,32.0,25.49,NNW,337,1.6,3.3,99,0.00,,,0.32,Rainwise IP-100,2013-05-23 01:02:00,
2013-05-22 18:07:00,32.4,32.0,25.50,NNW,337,0.0,2.8,99,0.06,,,0.33,Rainwise IP-100,2013-05-23 01:07:00,
2013-05-22 18:12:00,32.4,32.0,25.50,NNW,337,1.4,3.0,99,0.06,,,0.33,Rainwise IP-100,2013-05-23 01:12:00,
2013-05-22 18:17:00,32.5,33.0,25.49,NNW,337,1.6,3.3,99,0.00,,,0.33,Rainwise IP-100,2013-05-23 01:17:00,
2013-05-22 18:22:00,32.4,32.0,25.50,NNW,337,1.9,3.3,99,0.00,,,0.33,Rainwise IP-100,2013-05-23 01:22:00,
2013-05-22 18:27:00,32.4,32.0,25.50,NNW,337,1.2,3.0,99,0.00,,,0.33,Rainwise IP-100,2013-05-23 01:27:00,
2013-05-22 18:32:00,32.4,32.0,25.50,NNW,337,0.0,2.3,99,0.06,,,0.34,Rainwise IP-100,2013-05-23 01:32:00,
2013-05-22 18:37:00,32.4,32.0,25.50,NNW,337,0.0,1.4,99,0.06,,,0.34,Rainwise IP-100,2013-05-23 01:37:00,
2013-05-22 18:42:00,32.5,33.0,25.50,NNW,337,0.0,0.0,99,0.00,,,0.34,Rainwise IP-100,2013-05-23 01:42:00,
2013-05-22 18:47:00,32.6,33.0,25.50,NNW,337,0.0,0.0,99,0.00,,,0.34,Rainwise IP-100,2013-05-23 01:47:00,
2013-05-22 18:52:00,32.6,33.0,25.50,NNW,337,0.0,0.0,100,0.06,,,0.35,Rainwise IP-100,2013-05-23 01:52:00,
2013-05-22 18:57:00,32.7,33.0,25.50,NNW,337,0.0,0.0,100,0.06,,,0.35,Rainwise IP-100,2013-05-23 01:57:00,
2013-05-22 19:02:00,32.8,33.0,25.50,NNW,337,0.0,0.0,99,0.00,,,0.35,Rainwise IP-100,2013-05-23 02:02:00,
2013-05-22 19:07:00,32.9,33.0,25.50,NNW,337,0.0,0.0,99,0.00,,,0.35,Rainwise IP-100,2013-05-23 02:07:00,
2013-05-22 19:12:00,32.9,33.0,25.50,NNW,337,0.0,0.0,99,0.00,,,0.35,Rainwise IP-100,2013-05-23 02:12:00,
2013-05-22 19:17:00,32.9,33.0,25.50,NNW,337,0.0,0.0,99,0.06,,,0.36,Rainwise IP-100,2013-05-23 02:17:00,
2013-05-22 19:22:00,32.9,33.0,25.50,NNW,337,0.0,0.0,99,0.06,,,0.36,Rainwise IP-100,2013-05-23 02:22:00,
2013-05-22 19:27:00,32.9,33.0,25.50,NNW,337,0.0,0.0,99,0.00,,,0.36,Rainwise IP-100,2013-05-23 02:27:00,
2013-05-22 19:32:00,32.9,33.0,25.50,NNW,337,0.0,0.0,99,0.00,,,0.36,Rainwise IP-100,2013-05-23 02:32:00,
2013-05-22 19:37:00,33.0,33.0,25.50,NNW,337,0.0,0.0,99,0.06,,,0.37,Rainwise IP-100,2013-05-23 02:37:00,
2013-05-22 19:42:00,32.9,33.0,25.50,NNW,337,0.0,0.0,99,0.06,,,0.37,Rainwise IP-100,2013-05-23 02:42:00,
2013-05-22 19:47:00,32.9,33.0,25.50,NNW,337,0.0,0.0,99,0.00,,,0.37,Rainwise IP-100,2013-05-23 02:47:00,
2013-05-22 19:52:00,32.9,33.0,25.50,NNW,337,1.4,1.6,99,0.00,,,0.37,Rainwise IP-100,2013-05-23 02:52:00,
2013-05-22 19:57:00,32.9,33.0,25.50,NNW,337,0.0,1.4,99,0.00,,,0.37,Rainwise IP-100,2013-05-23 02:57:00,
2013-05-22 20:02:00,32.8,33.0,25.51,NNW,337,0.0,0.0,99,0.00,,,0.37,Rainwise IP-100,2013-05-23 03:02:00,
2013-05-22 20:07:00,32.6,33.0,25.50,NNW,337,0.0,0.0,99,0.00,,,0.37,Rainwise IP-100,2013-05-23 03:07:00,
2013-05-22 20:12:00,32.3,32.0,25.50,NNW,337,0.0,0.0,99,0.00,,,0.37,Rainwise IP-100,2013-05-23 03:12:00,
2013-05-22 20:17:00,32.0,32.0,25.50,NNW,337,0.0,0.0,99,0.06,,,0.38,Rainwise IP-100,2013-05-23 03:17:00,
2013-05-22 20:22:00,31.8,32.0,25.50,NNW,337,0.0,0.0,99,0.06,,,0.38,Rainwise IP-100,2013-05-23 03:22:00,
2013-05-22 20:27:00,31.6,32.0,25.50,NNW,337,0.0,0.0,99,0.00,,,0.38,Rainwise IP-100,2013-05-23 03:27:00,
2013-05-22 20:32:00,31.4,31.0,25.50,SSW,202,0.0,3.3,99,0.00,,,0.38,Rainwise IP-100,2013-05-23 03:32:00,
2013-05-22 20:37:00,31.1,31.0,25.50,SSW,202,2.1,0.0,99,0.00,,,0.38,Rainwise IP-100,2013-05-23 03:37:00,
2013-05-22 20:42:00,31.0,31.0,25.50,SSW,202,1.6,2.3,100,0.00,,,0.38,Rainwise IP-100,2013-05-23 03:42:00,
2013-05-22 20:47:00,30.8,31.0,25.50,SSW,202,0.0,4.0,100,0.00,,,0.38,Rainwise IP-100,2013-05-23 03:47:00,
2013-05-22 20:52:00,30.7,31.0,25.50,SSW,202,0.0,2.3,100,0.00,,,0.38,Rainwise IP-100,2013-05-23 03:52:00,
2013-05-22 20:57:00,30.7,31.0,25.50,SSW,202,0.0,0.0,100,0.00,,,0.38,Rainwise IP-100,2013-05-23 03:57:00,
2013-05-22 21:01:00,30.9,31.0,25.50,SSW,202,0.0,0.0,100,0.00,,,0.38,Rainwise IP-100,2013-05-23 04:01:00,
2013-05-22 21:06:00,31.0,31.0,25.50,SSW,202,0.0,1.6,100,0.00,,,0.38,Rainwise IP-100,2013-05-23 04:06:00,
2013-05-22 21:11:00,31.0,31.0,25.50,SSE,157,0.0,2.3,100,0.00,,,0.38,Rainwise IP-100,2013-05-23 04:11:00,
2013-05-22 21:16:00,31.0,31.0,25.50,SSW,202,0.0,2.6,100,0.00,,,0.38,Rainwise IP-100,2013-05-23 04:16:00,
2013-05-22 21:21:00,30.8,31.0,25.50,SSW,202,0.0,0.0,100,0.00,,,0.38,Rainwise IP-100,2013-05-23 04:21:00,
2013-05-22 21:26:00,30.6,31.0,25.50,SSE,157,1.9,1.9,100,0.00,,,0.38,Rainwise IP-100,2013-05-23 04:26:00,
2013-05-22 21:31:00,30.7,31.0,25.50,East,90,1.2,2.1,100,0.00,,,0.38,Rainwise IP-100,2013-05-23 04:31:00,
2013-05-22 21:36:00,30.9,31.0,25.50,SE,135,0.0,2.6,100,0.00,,,0.38,Rainwise IP-100,2013-05-23 04:36:00,
2013-05-22 21:41:00,31.0,31.0,25.50,SE,135,1.6,2.3,100,0.00,,,0.38,Rainwise IP-100,2013-05-23 04:41:00,
2013-05-22 21:46:00,31.0,31.0,25.50,South,180,1.2,1.9,100,0.00,,,0.38,Rainwise IP-100,2013-05-23 04:46:00,
2013-05-22 21:51:00,30.8,31.0,25.50,South,180,0.0,2.3,100,0.00,,,0.38,Rainwise IP-100,2013-05-23 04:51:00,
2013-05-22 21:56:00,30.5,31.0,25.50,South,180,0.0,1.4,100,0.00,,,0.38,Rainwise IP-100,2013-05-23 04:56:00,
2013-05-22 22:01:00,30.4,31.0,25.51,South,180,0.0,0.0,100,0.00,,,0.38,Rainwise IP-100,2013-05-23 05:01:00,
2013-05-22 22:06:00,30.4,31.0,25.50,SE,135,0.0,3.0,100,0.00,,,0.38,Rainwise IP-100,2013-05-23 05:06:00,
2013-05-22 22:11:00,30.5,31.0,25.50,SE,135,0.0,2.6,100,0.00,,,0.38,Rainwise IP-100,2013-05-23 05:11:00,
2013-05-22 22:16:00,30.5,31.0,25.51,South,180,0.0,1.9,100,0.00,,,0.38,Rainwise IP-100,2013-05-23 05:16:00,
2013-05-22 22:21:00,30.5,31.0,25.50,South,180,0.0,1.6,100,0.00,,,0.38,Rainwise IP-100,2013-05-23 05:21:00,
2013-05-22 22:26:00,30.7,31.0,25.50,SE,135,2.6,2.8,100,0.00,,,0.38,Rainwise IP-100,2013-05-23 05:26:00,
2013-05-22 22:31:00,30.9,31.0,25.50,SSW,202,0.0,2.8,100,0.00,,,0.38,Rainwise IP-100,2013-05-23 05:31:00,
2013-05-22 22:36:00,31.0,31.0,25.50,ESE,112,0.0,3.0,100,0.00,,,0.38,Rainwise IP-100,2013-05-23 05:36:00,
2013-05-22 22:41:00,31.2,31.0,25.50,SE,135,1.4,3.3,100,0.00,,,0.38,Rainwise IP-100,2013-05-23 05:41:00,
2013-05-22 22:46:00,31.3,31.0,25.50,SE,135,1.2,2.6,100,0.00,,,0.38,Rainwise IP-100,2013-05-23 05:46:00,
2013-05-22 22:51:00,31.3,31.0,25.50,SE,135,0.0,2.3,100,0.00,,,0.38,Rainwise IP-100,2013-05-23 05:51:00,
2013-05-22 22:56:00,31.4,31.0,25.50,SE,135,2.3,3.3,100,0.00,,,0.38,Rainwise IP-100,2013-05-23 05:56:00,
2013-05-22 23:01:00,31.5,32.0,25.50,ESE,112,0.0,3.3,100,0.00,,,0.38,Rainwise IP-100,2013-05-23 06:01:00,
2013-05-22 23:06:00,31.6,32.0,25.50,SE,135,0.0,3.7,100,0.00,,,0.38,Rainwise IP-100,2013-05-23 06:06:00,
2013-05-22 23:09:00,31.6,32.0,25.50,SE,135,2.1,3.0,100,0.00,,,0.38,Rainwise IP-100,2013-05-23 06:09:00,
2013-05-22 23:14:00,31.6,32.0,25.50,SE,135,1.2,2.1,100,0.00,,,0.38,Rainwise IP-100,2013-05-23 06:14:00,
2013-05-22 23:19:00,31.7,32.0,25.50,SE,135,1.4,2.8,100,0.00,,,0.38,Rainwise IP-100,2013-05-23 06:19:00,
2013-05-22 23:24:00,31.8,32.0,25.50,SE,135,0.0,2.3,100,0.00,,,0.38,Rainwise IP-100,2013-05-23 06:24:00,
2013-05-22 23:29:00,31.7,32.0,25.50,SE,135,0.0,2.3,100,0.00,,,0.38,Rainwise IP-100,2013-05-23 06:29:00,
2013-05-22 23:34:00,31.7,32.0,25.50,ESE,112,1.6,3.3,100,0.00,,,0.38,Rainwise IP-100,2013-05-23 06:34:00,
2013-05-22 23:39:00,31.8,32.0,25.50,SE,135,2.3,2.8,100,0.00,,,0.38,Rainwise IP-100,2013-05-23 06:39:00,
2013-05-22 23:44:00,31.8,32.0,25.50,SE,135,1.9,3.0,100,0.00,,,0.38,Rainwise IP-100,2013-05-23 06:44:00,
2013-05-22 23:49:00,31.8,32.0,25.50,SE,135,0.0,3.0,100,0.00,,,0.38,Rainwise IP-100,2013-05-23 06:49:00,
2013-05-22 23:54:00,31.8,32.0,25.50,SE,135,2.8,3.5,100,0.00,,,0.38,Rainwise IP-100,2013-05-23 06:54:00,
2013-05-22 23:59:00,31.8,32.0,25.50,SE,135,0.0,3.5,100,0.00,,,0.38,Rainwise IP-100,2013-05-23 06:59:00,